Location: Famechon
(49.7599°N, 2.0615°E)
Time: 23:49:48
(UTC+00:00)

Cosmos 1763 Rocket - Pass Details

Date: 03 February 2023
Orbit: 733 x 778 km, 74.0° (Epoch: 21 March)

Event Time Altitude Azimuth Distance (km) Brightness Sun altitude
Rises 18:16:31 0° 334° (NNW) 3,230 7.0 -14.2°
Reaches altitude 10° 18:18:55 10° 331° (NNW) 2,293 6.2 -14.6°
Maximum altitude 18:24:03 64° 251° (WSW) 828 3.9 -15.4°
Drops below altitude 10° 18:29:05 10° 171° (S) 2,248 5.9 -16.2°
Sets 18:31:25 0° 168° (SSE) 3,161 6.6 -16.6°
